TimeEDT,TemperatureF,Dew PointF,Humidity,Sea Level PressureIn,VisibilityMPH,Wind Direction,Wind SpeedMPH,Gust SpeedMPH,PrecipitationIn,Events,Conditions,WindDirDegrees,DateUTC
12:53 AM,68.0,66.0,93,29.85,-9999.0,Calm,Calm,-,N/A,,Unknown,0,2012-10-19 04:53:00
1:53 AM,69.1,66.9,93,29.85,-9999.0,SSE,3.5,-,N/A,,Unknown,160,2012-10-19 05:53:00
2:53 AM,70.0,68.0,93,29.83,-9999.0,SSW,3.5,-,N/A,,Unknown,200,2012-10-19 06:53:00
3:53 AM,71.1,69.1,93,29.82,-9999.0,South,4.6,-,N/A,,Unknown,190,2012-10-19 07:53:00
4:53 AM,72.0,70.0,93,29.82,-9999.0,SSW,3.5,-,N/A,,Unknown,210,2012-10-19 08:53:00
5:53 AM,72.0,69.1,91,29.83,-9999.0,North,4.6,-,N/A,,Unknown,350,2012-10-19 09:53:00
6:53 AM,70.0,68.0,93,29.84,-9999.0,Calm,Calm,-,N/A,,Unknown,0,2012-10-19 10:53:00
7:53 AM,70.0,68.0,93,29.86,-9999.0,NNW,4.6,-,N/A,,Unknown,330,2012-10-19 11:53:00
8:53 AM,70.0,66.9,90,29.87,-9999.0,North,6.9,-,N/A,,Unknown,10,2012-10-19 12:53:00
9:53 AM,73.9,66.0,76,29.89,-9999.0,NE,6.9,-,N/A,,Unknown,40,2012-10-19 13:53:00
10:53 AM,75.9,53.1,45,29.90,-9999.0,NNE,13.8,-,N/A,,Unknown,30,2012-10-19 14:53:00
11:53 AM,80.1,48.0,32,29.89,-9999.0,Variable,5.8,-,N/A,,Unknown,0,2012-10-19 15:53:00
12:53 PM,79.0,54.0,42,29.88,-9999.0,Calm,Calm,-,N/A,,Unknown,0,2012-10-19 16:53:00
1:53 PM,82.0,57.9,44,29.85,-9999.0,NNE,4.6,-,N/A,,Unknown,30,2012-10-19 17:53:00
2:53 PM,82.9,55.9,39,29.84,-9999.0,WNW,6.9,-,N/A,,Unknown,290,2012-10-19 18:53:00
3:53 PM,82.9,57.0,41,29.82,-9999.0,Calm,Calm,-,N/A,,Unknown,0,2012-10-19 19:53:00
4:53 PM,82.9,57.9,42,29.81,-9999.0,SW,3.5,-,N/A,,Unknown,230,2012-10-19 20:53:00
5:53 PM,81.0,57.9,45,29.81,-9999.0,West,5.8,-,N/A,,Unknown,260,2012-10-19 21:53:00
6:53 PM,75.0,62.1,64,29.82,-9999.0,West,5.8,-,N/A,,Unknown,260,2012-10-19 22:53:00
7:53 PM,71.1,61.0,70,29.84,-9999.0,WSW,4.6,-,N/A,,Unknown,250,2012-10-19 23:53:00
8:53 PM,69.1,62.1,78,29.85,-9999.0,WSW,3.5,-,N/A,,Unknown,240,2012-10-20 00:53:00
9:53 PM,64.9,60.1,84,29.88,-9999.0,Calm,Calm,-,N/A,,Unknown,0,2012-10-20 01:53:00
10:53 PM,63.0,59.0,87,29.89,-9999.0,Calm,Calm,-,N/A,,Unknown,0,2012-10-20 02:53:00
11:53 PM,60.1,57.0,90,29.90,-9999.0,Calm,Calm,-,N/A,,Unknown,0,2012-10-20 03:53:00